sat.trackr.live / text

‹ back to catalog

STARLINK-3936

NORAD 52674 · 2022-053U

PAYLOAD ACTIVE UNKNOWN

§ Identity

Operator
Country
US
Launch date
2022-05-18
Launch site
AFETR
Launch vehicle
Mass (kg)
RCS (m²)

Purposes: comms

External: N2YO · Heavens-Above · Gunter

§ Orbital elements

Epoch: 2026-05-25T06:00:02.000160Z

Period
93.66 min
Inclination
53.2170°
Eccentricity
0.0001333
Mean motion
15.37451888 rev/d
Perigee alt
452.7 km
Apogee alt
454.6 km
Semi-major
6,831.8 km
B*
1.9881e-3
RAAN
164.7433°
Arg perigee
69.1844°
Mean anomaly
125.3614°
Rev number
584

§ Raw data

STARLINK-39361 52674U 22053U   26145.25002315  .00074423  00000+0  19881-2 0  99902 52674  53.2170 164.7433 0001333  69.1844 125.3614 15.37451888  5843

JSON: /api/v1/satellites/52674 · /tle

For live sub-satellite position, see the globe view (requires WebGL).

§ Visibility from observer

Set your observer location to see the next 7 days of passes ≥ 10°. The values pass through the URL so the page stays shareable.

No JS? Fill the form by hand. The geolocation button needs JavaScript.